Location: La Comballaz
(46.3780°N, 7.0817°E)
Time: 04:56:19
(UTC+00:00)

X-37B - Pass Details

Date: 12 December 2021
Orbit: 334 x 337 km, 45.0° (Epoch: 11 January)

Event Time Altitude Azimuth Distance (km) Brightness Sun altitude
Rises 17:19:15 0° 262° (W) 2,103 6.1 -15.5°
Reaches altitude 10° 17:21:16 10° 260° (W) 1,267 4.5 -15.8°
Maximum altitude 17:24:04 66° 177° (S) 367 0.4 -16.3°
Enters shadow 17:24:37 50° 119° (ESE) 434 0.5 -16.4°
